Temp
15 15 15 15 15 14 14 14 14 14 15 15 15 15 15 14 14 13 13 13 13 12 12 12 12 13 13 13 13 13 13 13 13 13 14 14 14 14 14 13 13 13 13 13 13 13 14 14 14 14 14 14 13 13 13 13 13 13 14 14 13 13 13 13 13 12 12 13 13
14 14 14 14 14 13 13 13 13 13 14 14 14 13 13 13 13 12 12 12 12 12 12 12 12 12 12 12 12 12 12 12 12 13 13 13 13 13 13 13 13 12 12 12 12 13 13 13 13 13 13 12 12 12 12 11 12 12 12 12 12 11 11 11 11 10 11 11 11
14 13 13 13 13 12 12 12 12 12 13 13 12 12 12 12 12 11 11 11 11 11 11 11 11 11 11 11 11 11 11 11 11 11 12 12 12 12 12 11 12 12 12 12 12 12 12 12 13 13 12 11 11 11 10 10 10 10 10 10 10 10 10 9 9 9 9 10 10
13 12 12 12 12 12 12 12 12 12 12 11 11 11 11 11 11 11 11 11 11 10 10 10 10 10 10 11 11 11 11 11 11 11 11 11 11 11 11 11 11 11 11 11 11 11 11 12 12 11 11 10 10 10 9 9 9 9 9 9 9 9 9 9 9 9 9 9 9
12 12 12 12 11 11 11 11 11 11 11 11 11 11 10 10 10 10 10 10 10 9 9 9 10 10 10 10 10 10 10 10 10 10 10 10 10 10 10 10 10 10 10 10 10 10 9 10 10 9 9 9 9 8 8 8 8 8 8 8 8 8 8 8 8 9 9 9 9
11 11 11 11 11 11 11 11 11 11 11 11 11 10 10 10 10 10 9 9 9 9 9 9 10 10 10 9 9 9 9 9 10 10 9 9 9 9 9 9 9 9 9 9 9 9 9 9 9 8 8 8 8 8 8 8 8 8 8 8 8 8 8 8 8 8 8 8 8
10 10 10 10 10 10 10 10 11 11 10 10 10 10 9 9 9 9 9 9 8 9 9 9 9 9 9 8 8 9 9 9 9 9 9 8 8 8 8 8 9 9 9 9 9 9 9 9 9 8 8 8 8 8 8 8 8 8 8 8 8 8 8 8 8 8 8 8 8
10 10 9 9 10 10 10 10 10 10 10 10 9 9 9 9 9 9 9 8 8 8 8 8 8 8 8 8 8 8 8 8 8 8 8 8 8 8 8 8 8 8 8 8 9 9 9 9 9 9 8 8 8 8 8 8 8 8 8 7 7 7 7 7 7 7 7 7 8
9 9 9 9 9 9 9 10 10 10 9 9 8 8 8 8 8 8 8 8 8 8 8 8 8 8 8 8 8 8 8 8 8 8 7 8 8 8 8 8 8 8 8 8 8 8 8 9 9 8 8 8 8 8 8 8 8 8 7 7 7 7 7 7 7 6 7 7 7
8 8 8 8 8 8 9 9 9 9 8 8 7 7 7 7 8 8 8 7 7 8 8 8 8 8 8 8 8 8 8 8 8 7 7 7 8 8 8 7 7 7 7 7 7 8 8 8 8 8 8 8 8 8 8 8 8 8 7 7 7 7 6 6 6 6 6 6 6
7 7 7 7 7 7 8 8 7 7 7 7 7 7 7 7 7 7 7 7 8 8 8 7 8 8 8 8 8 8 7 7 7 7 7 7 7 7 7 7 7 7 7 7 7 7 7 7 7 7 7 7 7 7 7 7 7 7 7 7 7 6 6 6 6 6 6 6 6
6 6 6 6 6 7 7 7 6 6 6 6 6 6 6 6 6 7 7 7 8 7 7 7 7 8 8 8 7 7 7 7 7 7 7 7 7 7 7 7 7 6 6 6 6 6 5 6 6 6 6 6 6 6 6 6 6 6 6 6 6 6 6 6 6 5 5 5 5
5 5 5 6 6 6 6 6 6 6 6 6 6 6 6 6 6 6 7 7 7 7 7 7 8 8 8 8 7 7 7 7 7 7 7 7 7 7 7 6 6 6 5 5 5 5 4 4 5 5 5 5 5 5 5 5 5 5 5 5 5 5 5 5 5 5 5 5 5
5 5 5 5 5 6 6 5 5 5 5 5 5 5 5 5 6 6 6 7 7 7 7 7 8 8 8 7 7 7 7 7 7 7 7 7 7 7 6 6 5 5 5 4 4 4 4 4 4 4 4 4 4 4 4 4 4 4 4 5 5 5 5 5 5 5 5 5 5
4 4 4 5 5 5 5 5 4 4 4 4 5 5 5 5 6 6 6 7 7 7 7 7 7 7 7 7 7 7 7 7 7 7 7 7 6 6 6 5 4 4 4 4 4 4 4 4 4 4 4 4 4 4 4 4 4 4 4 4 4 4 4 4 5 5 5 5 5
4 4 4 4 4 4 4 4 4 4 4 4 5 5 6 6 6 6 7 7 7 7 7 7 7 7 7 7 6 6 6 7 7 7 6 6 6 5 5 4 4 4 4 5 5 5 5 5 5 5 5 5 5 5 5 5 5 5 5 5 5 4 4 4 5 5 5 5 6
3 3 4 4 4 4 4 4 4 4 4 5 5 6 6 6 6 7 7 7 7 7 6 6 6 6 6 6 6 6 6 6 6 6 6 5 5 5 5 5 5 5 5 5 5 5 5 5 5 5 5 5 5 5 5 5 5 5 5 5 5 5 5 5 5 5 5 5 5
3 3 3 3 3 3 3 4 4 4 5 5 5 6 6 6 6 6 6 6 6 6 6 6 6 6 6 6 6 6 6 6 6 5 5 5 5 5 5 5 5 5 5 5 5 5 5 5 5 5 5 5 5 5 5 5 5 5 5 5 5 5 5 5 5 5 5 5 5
2 3 3 3 3 3 4 4 4 5 5 5 5 5 6 6 6 6 6 6 6 6 6 6 6 6 6 6 6 5 5 5 5 5 5 5 5 4 4 4 4 4 4 4 4 4 4 4 4 4 4 4 4 4 4 4 4 5 5 5 5 5 5 5 5 5 5 5 4
2 3 3 3 4 4 4 4 5 5 5 5 5 5 5 5 5 6 6 6 6 6 6 6 6 6 5 5 5 5 5 5 5 4 4 4 4 4 4 4 4 4 4 3 3 3 3 3 3 3 3 3 3 3 4 4 4 4 4 4 4 4 4 4 4 4 4 4 4
3 3 3 4 4 4 4 4 4 5 5 5 5 5 5 5 5 5 5 5 5 6 6 6 5 5 5 5 5 4 4 4 4 4 4 4 4 4 4 4 4 4 4 4 4 3 3 3 3 3 3 3 3 3 3 3 3 3 4 4 4 4 4 4 4 4 4 4 4
3 3 3 4 4 4 4 4 4 4 5 5 5 5 5 5 5 5 5 5 5 5 5 5 5 5 4 4 4 4 4 4 4 4 4 4 4 4 4 4 4 4 4 4 4 4 4 4 3 3 3 3 3 3 3 3 3 3 4 4 4 4 4 4 4 4 4 4 4
3 3 3 4 4 4 4 4 4 4 4 4 4 5 5 5 5 5 5 5 5 5 5 4 4 4 4 4 3 3 3 3 4 4 4 4 4 4 3 3 3 3 4 4 4 3 3 4 4 4 4 4 4 3 3 3 3 3 4 4 4 4 4 4 4 4 4 4 4
3 3 3 4 4 4 4 4 4 4 4 4 4 4 4 4 4 4 4 4 4 4 4 4 3 3 3 3 3 3 3 3 3 3 3 3 3 3 3 3 3 3 3 3 3 3 3 3 3 3 3 3 3 3 3 3 3 3 3 3 4 4 3 3 3 3 3 3 3
3 3 3 3 3 4 4 4 4 4 4 4 4 4 4 4 4 4 4 4 4 3 3 3 3 3 3 3 3 3 3 3 3 3 3 3 3 2 2 2 2 3 3 3 3 3 2 2 2 2 2 3 3 3 3 3 3 3 3 3 3 3 3 3 3 3 3 3 3
3 3 3 3 3 3 3 3 3 3 3 4 4 4 3 3 3 3 3 3 3 3 3 2 2 2 3 3 3 3 3 3 3 3 3 3 2 2 2 2 2 2 3 3 3 3 2 2 2 2 2 2 2 2 3 3 3 3 3 3 3 3 3 3 3 3 3 3 3
2 2 2 3 3 3 3 3 3 3 3 3 3 3 3 3 3 3 3 2 2 2 2 2 2 2 2 2 2 2 2 2 2 2 2 2 2 2 2 2 2 2 2 2 2 2 2 2 2 2 2 2 2 2 2 2 2 2 2 2 2 3 3 3 3 3 3 3 3
2 2 2 2 2 2 3 3 3 3 3 3 3 3 3 2 2 2 2 2 2 2 2 2 2 2 2 2 2 2 2 2 2 2 2 2 2 2 2 2 2 2 2 2 2 2 2 2 2 1 1 1 1 1 1 1 2 2 2 2 2 2 2 3 3 3 3 3 3
2 2 2 2 2 2 2 2 2 2 2 2 2 2 2 2 2 2 2 2 2 2 2 2 2 2 2 2 2 2 2 2 2 2 2 2 2 2 2 2 2 2 1 1 1 1 1 1 1 1 1 1 1 1 1 1 1 1 1 1 2 2 2 2 2 2 2 3 3
2 2 2 2 2 2 2 2 2 2 2 2 2 2 2 2 2 2 2 2 2 2 2 2 2 2 2 2 2 2 2 2 2 2 2 2 2 1 1 1 1 1 1 1 1 1 1 1 1 1 1 0 0 0 0 0 1 1 1 1 1 1 2 2 2 2 2 2 2
2 2 2 2 2 2 2 2 2 2 2 2 2 2 2 1 1 2 2 2 2 2 2 2 2 2 2 2 2 2 2 1 1 1 1 1 1 1 1 1 1 1 1 1 1 1 1 1 0 0 0 0 0 -0 -0 0 0 0 0 1 1 1 1 1 1 1 2 2 2
1 1 1 1 1 1 1 1 1 1 1 1 1 1 1 1 1 1 1 1 2 2 2 2 2 2 2 1 1 1 1 1 1 1 1 1 1 1 1 1 1 1 1 1 1 1 1 1 0 0 0 0 -0 -0 -0 -0 -0 -0 0 0 0 0 1 1 1 1 1 1 2
1 1 1 1 1 1 1 1 1 1 1 1 1 1 1 1 1 1 1 1 1 1 1 1 1 1 1 1 1 1 1 1 1 1 1 0 0 0 0 0 0 0 0 0 1 1 1 0 0 0 -0 -0 -0 -1 -1 -1 -1 -1 -0 -0 -0 0 0 0 1 1 1 1 1
1 1 1 1 1 1 1 1 1 1 1 1 1 1 1 1 1 1 1 1 1 1 1 1 1 1 1 1 1 1 1 0 0 0 0 0 0 0 0 0 0 0 0 0 0 0 0 0 -0 -0 -0 -0 -1 -1 -1 -1 -1 -1 -1 -1 -0 -0 0 0 1 1 1 1 1
1 1 1 1 1 1 1 1 1 1 1 1 1 1 1 1 1 1 1 1 1 1 1 1 0 0 0 0 0 0 0 0 0 -0 -0 -0 -0 -0 -0 -0 -0 -0 -0 -0 -0 -0 -0 -0 -0 -0 -0 -1 -1 -1 -1 -1 -1 -1 -1 -1 -1 -0 0 0 1 1 1 1 1
1 0 0 0 0 0 0 0 0 1 1 1 1 0 0 1 0 0 0 0 0 0 0 0 0 0 0 0 -0 -0 -0 -0 -0 -0 -0 -0 -1 -1 -1 -1 -1 -1 -1 -1 -1 -1 -0 -0 -0 -0 -1 -1 -1 -2 -2 -2 -2 -1 -1 -1 -1 -0 -0 0 0 1 1 1 1
0 0 -0 -0 -0 0 0 0 0 0 0 0 0 0 0 0 0 0 0 0 0 0 0 0 -0 -0 -0 -0 -0 -0 -0 -1 -1 -1 -1 -1 -1 -1 -1 -1 -1 -1 -1 -1 -1 -1 -1 -0 -0 -1 -1 -1 -1 -2 -2 -2 -2 -1 -1 -1 -1 -1 -0 -0 -0 0 0 0 0
-0 -0 -0 -0 -0 -0 -0 0 0 -0 -0 -0 -0 -0 -0 -0 -0 0 0 -0 -0 -0 -0 -0 -0 -0 -0 -0 -0 -1 -1 -1 -1 -1 -1 -1 -1 -1 -1 -1 -1 -1 -1 -1 -1 -1 -1 -1 -1 -1 -1 -1 -2 -2 -2 -2 -2 -2 -2 -1 -1 -1 -1 -1 -1 -0 -0 -0 0
-0 -0 -0 -0 -0 -0 -0 -0 -0 -0 -0 -0 -0 -0 -0 -0 -0 -0 -0 -0 -0 -0 -0 -0 -0 -0 -0 -1 -1 -1 -1 -1 -1 -1 -1 -1 -1 -1 -1 -1 -1 -1 -1 -1 -1 -1 -1 -1 -1 -1 -1 -1 -2 -2 -2 -2 -2 -2 -2 -2 -2 -2 -1 -1 -1 -1 -1 -1 -0
-0 -0 -0 -0 -0 -0 -0 -0 -0 -0 -0 -0 -0 -0 -0 -0 -0 -0 -0 -0 -0 -0 -0 -0 -0 -1 -1 -1 -1 -1 -1 -1 -1 -1 -1 -1 -1 -1 -1 -1 -1 -1 -1 -1 -1 -1 -1 -1 -1 -1 -1 -1 -2 -2 -2 -2 -2 -2 -2 -2 -2 -2 -2 -1 -1 -1 -1 -1 -1
-0 -0 -0 -0 -0 -0 -0 -0 -0 -0 -1 -1 -1 -1 -1 -1 -1 -1 -1 -1 -1 -1 -1 -1 -1 -1 -1 -1 -1 -1 -1 -1 -1 -1 -1 -1 -1 -1 -1 -1 -1 -1 -1 -1 -1 -1 -1 -1 -1 -1 -1 -1 -2 -2 -2 -2 -2 -2 -2 -2 -2 -2 -2 -2 -2 -2 -1 -1 -1
Height
730 731 732 733 734 736 738 738 738 738 739 740 741 742 743 744 745 745 746 746 746 747 748 749 750 751 752 753 754 755 755 755 755 755 755 755 755 755 755 755 755 755 755 755 755 754 754 753 753 753 753 752 752 752 751 750 750 749 749 750 750 750 750 751 751 751 751 750 750
730 731 732 733 735 737 738 737 738 738 739 740 741 742 743 744 744 745 745 746 746 747 748 750 751 752 753 753 754 754 754 755 755 755 755 755 755 755 755 755 755 755 754 754 754 754 753 752 752 752 752 751 751 751 750 750 750 749 748 748 749 749 749 750 750 751 751 750 750
731 732 734 735 737 738 737 737 737 738 738 740 741 742 743 743 744 744 745 746 747 748 749 750 751 752 753 753 753 753 754 754 754 754 754 754 754 754 754 754 754 753 753 753 753 753 752 752 751 751 751 750 750 750 750 750 750 749 748 749 749 749 750 750 751 751 751 751 750
732 733 735 736 736 736 736 737 737 737 738 740 741 742 742 743 744 744 745 746 748 749 750 751 752 752 752 753 753 753 754 754 754 754 754 754 754 754 754 754 753 753 752 752 752 751 751 751 751 750 750 750 750 750 750 750 749 749 749 749 749 750 750 751 751 751 751 751 751
731 732 734 735 736 736 736 736 736 737 739 740 741 742 742 743 744 745 746 747 749 750 751 751 752 752 752 753 753 754 754 754 754 754 754 754 754 754 754 754 753 753 752 752 752 751 751 750 750 750 750 750 750 750 750 750 750 749 749 749 749 749 750 750 751 751 751 752 752
731 732 733 734 735 735 736 736 736 737 739 740 741 742 743 744 745 745 747 748 750 750 751 751 752 752 753 754 754 754 754 754 754 755 755 755 755 755 754 754 754 754 753 753 753 752 751 751 751 751 751 751 750 750 750 750 750 750 750 750 750 750 750 750 751 751 751 751 751
731 731 732 733 734 735 735 735 736 737 739 740 741 742 744 745 745 747 748 749 750 751 751 752 752 753 754 754 754 754 754 755 755 755 755 755 755 755 755 755 755 755 754 754 754 753 753 752 752 752 752 752 751 751 750 751 750 750 750 750 750 751 751 751 751 752 752 752 752
730 731 732 733 733 734 734 735 736 738 740 741 742 744 745 746 746 747 748 750 750 751 752 753 754 754 755 755 755 755 755 755 755 756 756 756 756 756 755 755 755 755 755 755 754 754 754 753 753 753 753 752 752 752 752 751 751 751 751 751 751 751 751 752 752 752 752 753 753
730 731 732 733 734 734 735 736 738 739 740 742 744 745 746 747 747 748 749 750 751 752 753 754 755 755 755 755 755 756 756 757 757 757 757 757 756 756 756 755 755 755 755 755 755 754 754 754 753 753 753 753 753 753 753 752 752 752 751 751 751 751 751 752 752 752 753 753 754
731 732 733 734 735 736 736 738 739 740 741 743 745 746 747 747 748 749 750 751 752 753 754 755 755 756 756 756 756 757 757 758 758 758 758 758 757 757 756 756 756 755 755 755 755 755 754 754 754 754 753 753 753 753 753 753 752 752 752 752 752 752 752 752 752 752 753 753 754
732 733 735 736 737 737 738 739 740 741 742 744 745 747 748 748 749 750 751 752 753 754 755 755 756 756 756 756 757 758 758 759 759 759 759 759 758 758 757 757 756 756 756 755 755 755 755 755 754 754 754 754 754 753 753 753 753 752 752 752 752 752 752 752 752 752 753 754 754
734 735 736 737 738 738 739 740 741 742 744 745 746 748 749 750 750 751 752 753 754 755 755 756 756 756 756 757 758 759 759 759 760 760 759 759 759 759 758 758 757 757 757 756 756 756 755 755 755 755 754 754 753 753 753 753 753 753 752 752 752 752 751 752 752 752 753 753 754
735 736 737 738 739 739 740 740 742 743 745 746 748 749 750 751 752 752 753 754 755 755 756 756 756 757 757 758 759 760 760 760 760 760 760 760 760 760 759 759 758 758 758 758 757 757 757 756 756 755 755 754 754 753 753 753 753 753 753 753 753 752 752 751 751 751 752 752 753
737 738 739 739 740 740 740 742 744 745 746 748 749 750 751 752 753 754 754 755 755 756 756 756 757 757 758 759 760 760 760 760 760 760 760 760 760 760 760 759 759 759 759 758 758 758 757 757 756 756 755 755 754 754 754 754 754 754 754 754 754 753 753 752 752 751 751 751 751
739 739 740 740 740 741 742 744 745 747 748 749 750 751 752 753 754 755 755 756 756 756 757 757 757 758 759 759 760 760 760 760 760 761 761 760 760 760 760 760 760 759 759 759 758 758 757 757 757 756 756 755 755 755 755 755 754 755 755 755 755 755 754 754 753 753 751 750 750
740 741 741 742 742 743 744 746 747 749 750 751 752 753 754 755 755 756 756 756 757 757 758 758 758 759 760 760 760 761 761 761 761 761 761 761 761 761 761 760 760 760 759 759 759 758 758 757 757 757 756 756 756 756 755 755 755 755 755 755 755 755 755 755 755 754 753 752 750
741 742 743 744 744 745 746 747 749 750 751 752 754 755 755 756 756 757 757 757 758 758 759 759 760 760 760 761 761 762 762 762 762 762 762 762 762 762 761 761 761 760 760 760 759 759 759 758 758 757 757 757 757 756 756 756 756 756 756 755 755 755 755 755 755 754 754 753 752
743 744 745 746 746 747 748 749 750 752 753 754 755 756 757 757 757 758 758 759 759 760 760 760 761 761 761 762 762 763 763 763 763 763 763 762 762 762 762 762 761 761 760 760 760 759 759 759 758 758 758 757 757 757 757 757 757 756 756 756 755 755 755 754 754 754 754 753 753
745 747 747 748 748 749 750 751 752 754 755 756 757 758 758 758 759 759 759 760 760 761 761 761 762 762 762 763 763 763 764 764 764 763 763 763 763 763 762 762 762 761 761 760 760 760 759 759 759 758 758 758 757 757 757 757 756 756 756 756 755 755 755 754 754 754 753 753 753
747 749 750 750 751 751 753 754 755 756 757 758 759 759 759 760 760 760 760 761 761 762 762 762 763 763 763 764 764 764 765 764 764 764 764 764 763 763 763 763 762 762 761 761 760 760 759 759 759 759 758 758 758 757 757 756 756 756 755 755 755 755 754 754 753 753 753 752 752
750 751 752 752 753 754 755 756 757 758 759 760 760 760 760 761 761 761 762 762 763 763 763 763 764 764 764 765 765 765 765 765 765 765 764 764 764 763 763 763 762 762 761 761 760 760 760 759 759 759 758 758 758 757 757 756 756 756 755 755 755 754 754 753 753 753 752 752 751
752 753 754 755 755 756 757 758 759 760 760 761 761 761 762 762 762 763 763 763 764 764 764 764 765 765 765 765 766 766 766 766 765 765 765 764 764 764 763 763 763 762 762 761 761 760 760 759 759 758 758 758 757 757 757 756 756 756 755 755 755 754 754 753 753 752 752 751 751
755 755 756 757 758 759 759 760 761 761 762 762 762 763 763 763 764 764 764 764 764 765 765 765 766 766 767 767 767 767 766 766 765 765 765 764 764 764 763 763 763 762 762 761 760 760 760 759 759 758 758 757 757 757 756 756 756 755 755 755 755 754 754 753 753 752 751 751 750
757 758 758 759 760 760 761 762 762 762 763 763 763 764 764 764 765 765 765 765 765 766 766 767 767 767 768 767 767 767 766 766 765 765 765 764 764 764 763 763 762 762 761 761 760 760 760 759 758 758 757 757 757 756 756 755 755 755 755 754 754 753 753 752 752 751 751 750 750
760 760 760 761 762 762 763 763 763 764 764 764 764 765 765 765 766 766 766 766 767 768 768 768 768 768 768 768 767 767 766 766 765 765 765 765 764 764 764 763 762 762 761 761 760 760 759 759 758 758 757 756 756 756 755 755 755 754 754 754 753 753 752 751 751 750 750 750 749
762 762 763 763 763 764 764 764 764 765 765 765 766 766 766 767 767 767 768 768 769 769 769 769 769 769 768 768 767 767 766 766 765 765 765 765 765 764 764 763 762 761 761 760 760 760 759 759 758 757 757 756 755 755 755 754 754 754 753 753 752 752 751 751 750 750 749 749 749
763 764 764 765 765 765 765 765 765 766 766 767 767 767 767 768 768 769 770 770 770 770 770 770 769 769 768 768 767 766 766 766 765 765 765 765 764 764 764 763 762 761 760 760 760 759 759 758 758 757 756 756 755 754 754 753 753 753 752 752 751 751 750 750 749 749 749 748 748
765 765 765 765 765 766 766 767 767 767 768 768 768 769 769 770 770 771 771 771 771 771 770 770 769 769 768 767 767 766 766 766 766 765 765 765 764 764 763 762 762 761 760 760 759 759 758 758 757 757 756 755 755 754 753 753 752 752 751 751 750 750 750 749 749 748 748 748 747
767 767 767 767 767 768 768 768 769 769 769 770 770 771 771 772 772 773 773 772 771 771 770 769 769 768 767 767 767 766 766 766 765 765 765 764 764 763 763 762 762 761 760 760 760 759 758 757 757 756 755 755 754 753 752 752 751 751 750 750 749 749 748 748 748 747 747 747 746
769 769 769 769 769 770 770 770 770 771 771 772 772 773 773 774 774 773 773 772 771 770 770 769 768 768 767 767 767 766 766 766 765 765 764 764 763 763 762 762 761 761 760 760 759 758 758 757 756 755 755 754 753 752 751 751 750 750 749 748 748 748 747 747 747 746 746 746 746
770 770 771 771 771 771 772 772 773 773 773 774 774 774 774 774 774 773 772 771 770 770 769 768 768 767 767 767 766 766 766 765 765 765 764 764 763 763 762 761 761 760 760 759 759 758 757 756 755 755 754 753 752 751 750 750 749 749 748 747 747 746 746 746 746 745 745 745 745
771 772 772 772 772 773 773 774 774 774 775 775 775 774 774 774 773 772 771 770 769 769 768 768 767 767 767 766 766 766 765 765 765 764 764 763 763 762 761 760 760 759 759 758 758 757 756 755 755 754 753 752 751 750 750 749 748 748 747 746 746 746 745 745 745 745 745 745 744
772 772 773 773 773 774 774 774 775 775 774 774 774 774 773 772 772 771 770 769 769 768 768 768 767 767 767 766 766 765 765 765 765 764 763 763 762 761 760 760 759 758 758 757 756 756 755 754 754 753 752 751 750 750 749 748 748 747 746 746 745 745 745 745 745 745 744 744 744
774 774 774 774 774 774 774 774 774 774 774 774 773 773 772 771 771 770 770 769 769 768 768 768 767 767 767 766 766 765 765 764 764 763 762 762 761 760 759 758 758 757 757 756 755 755 754 753 753 752 751 751 750 749 748 748 747 746 746 745 745 745 745 745 744 744 744 743 743
775 775 775 775 775 775 775 774 774 774 773 773 773 772 772 771 770 770 770 769 769 768 768 768 767 767 766 766 765 765 764 764 763 762 761 761 760 759 758 757 757 756 756 755 755 754 753 753 752 752 751 750 749 749 748 747 746 746 745 745 745 745 744 744 744 743 743 743 742
776 775 775 775 775 775 775 775 774 774 774 773 773 772 771 771 770 770 770 769 769 768 768 767 767 766 766 765 765 765 764 763 762 761 761 760 759 758 758 757 756 756 755 755 754 754 753 752 752 751 750 750 749 748 748 747 746 746 745 745 744 744 744 743 743 743 742 742 741
777 777 776 776 776 776 775 775 775 775 774 773 773 772 772 771 770 770 770 769 769 768 768 767 767 766 766 765 765 764 764 763 762 761 760 760 759 758 757 756 756 755 755 754 754 753 752 752 751 750 750 749 748 748 747 746 746 745 745 744 744 743 743 743 742 742 741 741 741
778 778 777 777 777 777 776 776 775 775 774 774 773 772 772 771 771 770 770 769 769 768 768 767 767 766 766 765 765 764 763 763 762 761 760 759 759 758 757 756 755 755 754 754 753 753 752 751 751 750 749 749 748 747 747 746 745 745 745 744 743 743 743 742 742 741 741 740 740
779 778 778 778 777 777 777 776 775 775 774 774 773 773 772 771 771 770 770 770 769 769 768 767 767 766 766 765 764 763 763 762 761 760 760 759 758 757 756 755 755 754 754 753 753 752 751 751 750 750 749 748 748 747 747 746 745 745 745 744 743 743 742 742 742 741 741 740 740
779 779 778 778 777 777 777 776 776 775 775 774 773 773 772 772 771 771 770 770 770 769 768 767 767 766 765 765 764 763 762 761 761 760 759 758 758 757 756 755 754 754 753 753 752 752 751 751 750 750 749 748 748 747 747 746 745 745 745 744 743 743 742 742 741 741 740 740 740
779 779 778 778 778 777 777 776 776 775 775 775 774 773 773 772 772 771 770 770 769 768 768 767 766 765 765 764 763 762 761 760 760 760 759 758 757 756 755 755 754 754 753 753 752 752 751 751 750 750 749 748 748 747 747 746 745 745 744 744 743 743 742 741 741 740 740 740 739
Wind_Speed
22 21 20 20 19 16 12 10 10 11 12 12 11 10 10 10 11 11 9 7 6 5 4 2 1 2 4 6 7 9 10 11 12 13 15 16 18 20 21 23 24 24 24 24 23 23 23 23 22 19 15 12 8 5 3 1 3 5 8 8 6 4 3 2 2 2 1 4 8
23 22 20 19 18 14 10 11 11 12 12 12 10 10 9 9 10 9 8 7 5 4 3 2 2 3 4 6 7 9 10 12 13 15 16 17 18 18 19 19 20 19 20 21 19 17 17 15 15 11 6 3 5 8 10 12 12 12 12 13 13 13 14 16 15 15 14 13 12
21 21 21 19 14 12 11 12 12 12 13 12 10 10 9 9 9 8 8 7 5 3 2 2 1 2 4 5 7 9 10 11 12 13 14 14 15 14 13 12 13 14 14 13 12 10 9 8 8 6 6 10 11 13 15 16 17 18 18 18 17 16 16 16 15 14 14 14 13
16 16 16 15 13 14 14 14 13 14 13 12 11 10 10 10 9 9 8 6 5 4 3 2 2 2 3 5 7 8 9 9 10 10 10 10 10 9 8 8 8 7 6 6 6 7 7 6 7 9 12 15 16 17 16 16 16 17 18 17 16 16 15 15 14 14 13 13 12
14 15 16 17 17 17 17 16 15 15 13 12 11 12 12 11 10 9 8 7 7 7 5 4 3 2 2 3 4 4 4 5 5 4 4 3 2 2 2 2 2 5 8 10 12 13 13 13 14 16 17 17 18 17 16 15 15 16 16 16 16 15 15 14 13 13 13 13 12
17 18 19 19 19 19 18 17 16 15 13 12 12 13 13 12 11 10 10 10 9 8 7 5 4 3 3 2 3 3 3 3 3 3 5 6 7 9 9 10 11 13 14 14 15 16 17 17 18 18 17 17 17 16 15 14 14 14 15 15 15 14 13 13 12 12 12 12 12
21 21 21 20 20 19 18 17 17 16 15 14 13 14 13 12 11 11 11 11 10 10 10 10 10 10 10 10 10 10 10 10 11 12 13 13 14 14 14 14 14 13 13 13 13 13 13 14 15 15 15 15 15 15 14 13 13 14 14 15 14 13 13 12 11 11 10 11 11
22 22 21 21 20 20 19 18 17 16 16 15 15 15 14 13 13 13 13 13 14 14 15 15 15 15 15 14 14 14 13 13 14 14 14 14 13 13 13 13 12 12 11 11 11 11 11 11 12 13 13 13 14 13 13 13 13 13 14 14 14 14 13 13 12 12 11 11 10
23 22 21 21 21 20 20 19 18 17 17 17 17 16 15 15 16 16 17 17 17 17 17 17 16 15 15 15 14 14 13 13 12 12 12 12 12 12 12 12 12 11 11 11 10 10 10 10 11 11 11 11 11 11 11 11 11 12 13 13 13 13 13 13 13 13 12 12 11
25 23 22 22 22 21 21 20 19 19 19 19 19 18 18 19 19 19 19 19 18 18 17 16 15 14 14 13 13 12 11 11 10 10 10 10 10 10 10 10 10 10 10 9 9 9 9 9 9 9 9 10 10 10 10 10 10 11 11 11 12 12 12 12 12 11 11 11 10
26 25 24 24 23 22 22 22 22 21 21 22 21 21 21 21 20 20 19 18 18 16 15 14 13 12 12 11 11 10 9 8 8 7 7 7 7 7 7 7 7 8 8 8 8 7 7 8 8 8 8 8 9 9 9 10 10 10 10 10 10 10 10 10 9 9 8 7 7
26 26 25 24 23 23 23 24 24 23 23 23 22 22 21 20 19 18 18 17 16 15 14 12 12 11 11 10 9 7 7 6 5 5 4 4 4 4 4 4 5 5 6 6 7 7 7 7 7 7 7 7 8 8 9 9 9 9 9 8 8 7 7 7 7 6 5 4 4
26 26 25 24 24 24 24 25 25 24 24 23 22 21 20 19 18 17 16 15 14 13 12 11 10 10 9 8 7 6 5 4 3 3 2 2 2 2 2 3 3 4 5 6 7 7 7 7 7 7 7 7 7 7 7 7 7 7 6 5 4 4 4 3 4 3 3 2 2
26 25 25 24 24 25 25 25 25 24 23 22 21 20 19 18 16 15 15 14 13 12 11 10 10 9 8 7 6 5 4 3 3 2 1 1 1 2 2 3 4 4 5 5 6 6 6 6 6 6 6 6 6 6 6 5 4 4 3 2 1 1 1 1 1 1 2 2 2
25 25 24 25 25 25 25 25 24 23 22 21 20 19 17 16 15 14 13 13 12 11 11 10 9 8 7 6 5 4 3 3 3 3 3 3 3 4 4 4 4 4 4 4 4 4 4 4 4 4 4 4 4 4 4 4 3 3 2 2 1 1 2 3 4 5 6 6 6
26 25 25 25 25 25 25 24 23 22 21 20 19 17 16 15 14 13 13 12 12 11 10 9 8 7 6 5 4 4 3 4 4 4 4 5 5 5 5 4 4 3 3 3 3 3 4 4 3 3 3 3 3 3 3 3 3 3 3 3 3 3 3 4 4 5 5 6 7
26 26 25 25 25 25 24 23 22 21 20 19 17 16 15 14 13 13 12 12 11 10 9 9 8 8 7 6 5 5 5 5 6 6 5 5 5 5 5 5 4 4 4 4 4 4 4 4 4 3 3 3 2 2 1 1 1 2 2 3 3 3 3 3 3 4 4 4 4
27 26 25 25 24 24 24 23 22 20 19 18 17 16 15 14 13 13 13 12 11 11 10 10 9 9 8 8 7 7 7 6 6 6 6 5 5 5 5 5 5 5 5 5 6 6 6 6 5 5 5 4 4 3 3 2 1 1 2 2 2 3 3 3 4 4 5 5 5
26 25 25 24 24 24 23 22 21 20 18 17 16 15 15 14 14 13 13 12 12 11 11 11 10 10 9 9 8 8 7 7 6 6 6 5 5 5 5 5 5 5 5 5 6 6 6 7 7 6 6 6 6 6 5 5 4 4 4 4 4 4 4 4 4 5 5 5 5
26 25 25 24 24 23 22 21 20 19 18 17 16 16 15 15 14 14 14 13 12 12 11 11 11 10 9 9 8 8 7 7 6 6 6 5 5 5 4 4 4 4 4 4 5 5 5 5 6 6 6 6 6 6 6 6 6 6 5 5 5 5 6 6 6 6 6 6 6
26 25 24 24 24 23 22 21 20 19 18 17 17 16 16 15 15 14 14 13 12 12 11 11 11 10 9 9 8 8 7 7 7 6 6 6 5 5 5 4 4 3 3 3 3 3 3 3 3 3 3 4 4 5 6 6 6 6 6 6 6 6 7 7 7 8 8 8 8
25 24 24 23 23 22 21 20 19 19 18 18 17 16 16 15 15 14 14 13 12 12 12 11 11 10 9 9 8 8 8 7 7 7 7 7 6 6 6 5 5 4 4 4 3 3 2 2 1 1 1 2 3 3 4 5 6 7 7 7 6 6 7 7 8 9 9 9 9
24 23 23 22 22 21 20 20 19 19 18 18 17 16 16 15 15 14 13 13 12 12 12 11 10 10 9 9 8 8 8 8 8 8 8 8 7 7 7 6 6 6 6 6 6 5 4 4 4 3 3 3 3 3 3 4 5 6 7 7 7 7 7 8 8 9 10 10 10
23 23 22 22 21 21 20 19 19 19 18 18 17 16 16 15 15 14 13 13 12 12 11 10 10 10 9 9 8 8 8 9 9 9 9 9 8 8 8 8 8 8 8 8 8 7 7 7 7 7 7 6 6 5 4 4 4 5 6 7 8 8 8 9 9 10 10 10 10
23 23 22 22 21 21 20 20 19 19 18 18 17 16 16 15 14 14 13 13 12 11 10 10 9 9 9 9 9 9 9 10 10 10 9 9 8 8 7 7 8 9 10 10 9 8 7 7 8 8 9 9 8 8 7 6 6 6 6 7 8 9 10 10 10 10 10 10 9
23 23 22 22 21 21 21 20 20 19 18 17 17 16 15 14 14 13 13 12 11 10 9 9 9 9 9 9 9 9 10 10 10 10 9 9 8 7 6 7 9 10 11 11 11 9 8 7 7 8 9 10 10 10 10 9 8 7 7 8 8 9 10 11 11 11 10 9 9
22 22 21 21 21 21 20 20 19 18 18 17 16 16 15 14 13 12 11 10 9 9 9 9 8 8 8 9 9 9 9 10 10 10 10 9 8 7 7 7 9 10 12 12 11 11 10 9 9 9 9 10 11 11 11 11 10 9 9 8 9 9 10 11 11 11 11 10 9
22 21 21 21 21 20 19 19 18 18 17 16 15 14 14 13 12 10 9 8 8 8 8 9 9 8 9 9 9 9 9 9 10 10 10 10 10 9 9 9 9 10 10 11 11 11 11 11 11 10 10 11 12 12 12 12 12 11 10 10 9 10 10 11 12 12 12 11 11
20 20 20 20 19 19 18 18 17 16 15 14 13 12 11 10 10 9 9 8 8 8 9 9 9 9 9 9 9 9 9 10 10 11 11 12 11 11 11 11 10 10 9 9 9 10 11 11 11 11 11 11 12 13 13 13 13 13 12 12 11 11 12 12 12 13 13 13 13
18 18 18 18 17 17 16 15 15 14 13 12 11 10 9 8 8 9 9 9 9 9 9 10 10 10 9 9 9 9 10 11 12 12 12 13 12 12 12 12 11 10 9 8 9 10 11 11 12 12 12 12 13 14 15 15 15 15 15 14 14 14 13 13 14 14 14 15 15
17 16 16 16 16 15 14 13 12 11 11 10 10 9 8 8 8 9 10 10 10 10 10 10 11 10 10 10 10 10 11 12 13 13 13 13 13 13 13 13 13 12 10 9 10 10 11 12 13 13 13 13 14 15 16 16 16 16 16 16 15 15 14 14 15 15 15 16 16
16 15 15 15 15 14 13 12 11 10 9 9 9 9 9 9 9 10 11 12 12 12 11 11 12 11 11 11 12 12 13 13 14 14 14 14 14 14 14 14 14 13 12 11 11 11 12 13 13 14 14 14 15 16 16 17 17 16 16 15 15 15 15 15 15 16 16 16 16
16 15 15 15 15 14 13 12 11 10 10 10 10 10 10 10 10 11 13 13 14 13 13 13 12 12 12 12 13 14 14 15 15 15 15 15 15 15 15 15 15 14 13 12 12 13 13 13 14 14 14 14 15 16 17 17 17 16 15 15 14 14 15 15 16 16 17 17 17
16 16 16 15 15 14 13 13 13 12 12 12 12 12 12 12 12 13 13 14 14 14 14 13 13 12 12 13 14 15 16 16 16 16 16 15 15 16 16 16 15 15 14 13 14 14 14 14 14 14 14 14 15 16 17 17 16 15 15 14 14 15 15 15 16 16 17 17 17
16 16 16 15 15 15 14 14 14 14 14 14 14 14 13 13 13 13 14 14 15 15 15 14 14 13 13 14 15 16 17 17 17 17 16 16 16 16 16 16 16 16 15 14 14 14 14 13 13 13 13 14 15 16 16 16 15 15 14 14 15 15 15 15 16 16 16 16 16
16 15 15 15 15 15 14 14 14 15 15 15 15 15 14 14 13 13 14 14 15 15 15 15 15 15 15 15 16 17 17 17 17 17 17 16 16 16 16 16 16 16 16 15 14 14 13 13 13 13 13 14 15 15 15 15 15 14 15 15 15 15 15 15 15 15 15 15 14
16 15 15 14 14 14 14 14 14 15 15 16 15 15 15 14 14 14 14 14 15 16 16 16 15 15 15 16 16 17 17 17 17 17 17 16 16 16 16 16 17 17 16 15 14 13 13 13 13 13 14 14 14 15 15 15 15 15 15 15 15 15 15 15 15 15 14 14 14
16 15 14 13 13 13 13 13 14 14 15 15 15 15 15 14 14 14 14 14 15 15 16 16 15 15 15 16 16 17 16 16 16 16 16 16 16 16 16 16 17 17 16 15 14 13 13 13 13 13 14 14 14 14 15 15 15 15 15 15 15 15 15 15 15 15 15 14 14
15 14 14 13 12 12 12 13 13 14 14 15 15 15 15 14 14 14 14 14 14 15 15 15 15 15 15 16 16 16 16 16 15 15 15 16 16 16 16 17 17 17 16 15 14 13 13 13 13 13 13 13 13 14 14 14 15 15 15 15 15 15 15 15 15 14 14 14 14
14 14 13 13 12 12 12 12 13 13 14 14 15 15 15 14 14 14 14 14 14 14 15 15 15 15 16 16 16 16 16 16 15 15 15 15 16 16 16 16 17 16 16 14 13 13 13 13 13 13 13 13 13 13 14 14 14 14 14 14 15 15 15 14 14 14 14 13 13
13 13 13 12 12 11 11 12 12 13 13 14 14 14 14 14 14 14 15 15 15 15 15 15 15 16 16 16 16 16 16 15 15 15 15 16 16 16 16 16 16 16 15 14 13 13 13 12 12 12 12 13 13 13 13 13 13 14 14 14 14 14 14 14 14 13 13 13 13
Wind_Direction
202 199 195 188 187 195 204 196 171 158 158 160 155 149 145 140 136 133 131 125 115 105 99 105 157 258 270 275 279 283 286 289 291 291 291 291 290 289 290 290 290 290 289 287 286 284 282 279 277 275 270 266 261 260 264 248 197 202 204 201 189 182 174 150 93 71 146 182 186
208 207 205 201 204 206 199 183 157 145 146 148 143 139 135 129 121 115 110 105 98 89 75 50 340 306 298 295 295 295 297 297 298 298 298 296 293 292 290 289 289 288 286 284 284 281 277 273 270 263 246 177 124 106 96 92 95 100 104 106 101 97 92 85 77 73 73 76 86
210 212 212 211 205 191 175 165 154 141 134 134 133 129 123 116 108 102 97 93 86 75 63 48 346 315 310 308 305 303 302 302 302 302 301 299 296 292 290 290 285 281 277 274 270 260 249 246 237 212 158 120 113 102 93 88 88 88 87 85 84 82 78 72 67 64 61 60 61
195 193 191 185 173 164 159 151 141 131 125 124 123 119 112 105 99 95 90 85 81 79 80 76 50 354 327 318 311 306 303 303 305 306 304 300 294 288 286 285 279 266 249 232 198 170 168 187 171 143 124 113 105 97 91 87 85 84 82 80 78 75 70 65 61 58 55 54 52
163 161 157 153 149 145 142 138 129 123 120 119 114 109 103 99 96 94 92 92 92 93 92 88 74 34 342 315 307 299 294 295 304 311 311 306 287 272 264 233 174 135 127 125 122 118 116 120 116 108 102 99 94 91 87 84 81 79 78 77 76 74 72 68 63 59 54 52 54
133 133 133 134 134 132 129 126 121 119 118 116 108 103 101 99 99 100 101 101 101 102 103 101 97 95 100 114 121 125 127 127 114 103 98 95 98 99 101 102 101 98 96 95 95 93 94 97 95 88 83 81 79 78 77 76 74 71 69 67 66 67 68 66 64 59 54 49 48
120 120 120 121 123 122 120 117 115 115 114 110 105 103 103 105 107 108 109 109 110 110 110 111 110 110 110 111 111 111 110 109 108 106 102 97 94 92 91 89 88 84 78 74 75 75 76 78 76 72 68 68 67 67 67 67 66 65 62 59 57 56 55 55 55 53 49 44 41
116 115 114 114 115 115 114 113 114 113 111 107 106 107 109 112 114 116 116 116 113 112 112 112 111 110 109 108 105 104 103 102 102 102 101 99 96 92 90 88 86 83 78 73 70 68 68 67 66 65 62 61 60 60 59 59 59 59 58 55 52 49 47 44 42 39 36 32 29
113 112 112 112 111 112 113 114 115 114 112 110 110 112 114 116 118 118 117 114 114 114 114 111 110 108 107 104 101 100 98 97 96 96 96 97 96 94 91 90 88 86 84 80 76 72 69 67 65 63 61 58 56 55 52 50 51 52 53 52 49 47 44 42 38 34 29 24 18
110 111 111 110 110 111 113 113 113 113 112 112 112 114 116 116 117 116 115 114 115 114 111 107 106 104 101 98 96 94 92 91 89 88 88 89 90 89 87 86 84 83 80 78 75 71 68 65 63 61 58 54 51 48 44 41 41 43 46 46 46 45 44 42 40 37 32 25 17
107 109 110 108 109 110 110 109 109 109 110 110 111 112 112 112 112 112 112 113 111 108 104 102 99 96 93 89 86 83 80 78 75 75 74 74 75 76 76 75 74 73 71 69 67 64 61 58 57 56 54 50 45 41 36 32 30 33 37 39 41 43 44 42 42 41 38 31 21
103 105 107 107 108 109 108 106 105 106 107 108 108 108 108 107 107 108 109 108 106 102 99 96 93 89 85 80 75 70 65 60 55 51 47 47 47 49 52 54 56 58 59 59 56 54 52 50 49 51 51 50 45 40 35 30 27 28 33 37 39 40 40 39 40 40 39 32 21
100 101 103 104 106 106 105 104 103 104 104 104 105 104 103 102 102 103 104 103 101 98 97 97 95 92 88 85 82 79 75 69 60 49 36 24 19 23 31 40 45 52 56 58 55 51 48 46 45 48 51 53 52 48 43 37 32 32 35 39 38 35 32 30 31 35 35 25 2
98 98 99 101 102 103 102 101 101 101 100 100 100 100 99 98 99 100 101 101 100 99 100 102 103 103 103 104 106 108 109 108 104 100 98 100 96 86 78 71 67 66 67 67 65 62 57 54 51 52 55 59 62 61 58 54 51 51 50 47 30 356 324 294 247 210 198 203 225
96 95 96 98 99 99 99 98 97 96 96 95 96 97 98 97 99 101 103 103 103 104 105 105 105 107 110 113 118 122 124 122 118 115 110 105 99 94 90 86 82 81 82 85 89 91 88 83 76 71 72 77 82 84 85 88 95 105 117 134 159 194 210 213 212 209 206 205 206
93 93 93 94 95 95 94 93 93 92 92 92 94 97 99 100 103 105 104 103 103 105 105 103 102 103 104 104 106 109 110 107 106 104 101 98 95 94 92 92 89 88 89 92 97 97 96 92 88 85 88 93 101 107 113 123 133 145 155 162 172 187 200 213 218 220 218 213 205
90 89 90 90 90 90 90 90 90 90 92 93 96 98 100 102 104 104 102 100 100 99 99 98 98 97 97 97 99 101 101 101 101 102 102 102 101 99 97 94 90 87 84 83 82 80 76 72 69 69 71 76 81 89 108 146 178 193 200 206 214 223 234 248 259 263 261 251 232
86 86 86 86 86 87 88 89 91 92 94 96 97 99 100 101 100 99 99 99 98 97 96 96 95 95 95 96 96 96 96 97 97 99 101 103 104 102 99 94 90 85 81 77 74 71 66 61 56 53 51 49 46 40 31 18 353 322 300 291 285 285 288 293 296 298 296 292 283
83 83 83 83 85 86 88 90 93 94 96 97 97 97 97 97 96 96 96 96 96 96 96 95 94 94 93 93 91 89 89 89 89 91 93 96 97 98 97 92 88 83 77 72 68 63 57 50 44 39 35 31 26 23 20 17 12 6 357 348 340 335 331 328 325 321 316 310 303
81 81 82 84 86 88 89 91 93 94 96 96 96 95 94 94 94 94 93 93 93 93 93 92 91 90 88 86 83 81 78 78 79 80 82 84 86 88 87 83 79 75 70 67 67 64 58 48 36 27 19 12 6 4 4 5 3 0 357 352 347 342 338 335 332 329 326 321 315
80 81 83 86 88 89 90 91 92 94 94 94 93 92 92 92 91 90 89 89 89 88 86 85 83 82 80 78 74 71 69 68 68 69 71 72 73 73 69 66 61 56 53 53 60 68 71 66 50 30 11 357 348 348 349 350 347 345 342 340 336 332 329 327 325 323 321 319 316
80 83 85 87 89 90 90 91 91 92 91 91 90 88 88 86 85 84 84 84 83 81 78 77 75 73 71 70 68 65 62 60 60 60 60 60 59 57 54 50 43 37 33 31 32 39 48 57 53 31 358 342 335 339 341 339 335 330 327 325 321 318 315 313 313 312 312 312 312
82 84 86 88 90 90 90 90 89 88 87 86 84 83 81 79 78 78 77 76 75 74 72 71 69 67 65 63 61 58 54 52 51 50 48 46 44 41 36 32 26 22 20 19 19 18 15 9 2 353 344 338 332 332 332 331 326 321 317 315 311 307 304 302 303 304 305 306 308
83 84 85 86 87 87 87 86 85 83 81 79 78 76 75 73 72 71 70 69 68 68 67 65 63 60 57 54 53 49 46 43 41 41 39 37 33 28 21 14 8 7 8 10 11 12 9 2 355 348 342 338 334 330 325 318 314 310 308 306 303 299 297 296 297 298 300 300 302
82 82 82 82 82 82 81 80 79 77 75 74 73 71 70 68 67 65 64 63 62 61 60 59 56 51 48 44 43 40 37 33 32 32 32 30 27 20 10 359 352 352 356 359 3 6 5 359 350 342 337 334 332 330 326 320 312 304 299 297 296 296 295 296 297 298 298 297 296
80 79 78 78 77 76 75 74 72 71 70 69 67 66 64 62 61 60 58 57 55 54 53 51 48 43 39 37 35 32 29 25 23 22 22 23 21 14 3 350 343 343 346 349 352 354 354 352 345 339 333 330 328 327 326 323 319 312 304 299 297 298 299 299 300 300 299 297 293
75 74 73 73 71 70 69 68 67 66 64 63 61 59 58 57 55 55 54 52 50 48 47 46 43 39 34 31 30 26 22 18 14 12 10 10 10 6 358 349 341 339 340 342 343 345 344 342 340 337 332 329 326 324 323 322 320 316 311 305 302 300 300 301 301 301 298 295 291
69 69 68 67 66 64 63 62 62 60 59 58 56 55 53 52 51 50 50 49 46 43 41 39 38 35 31 28 25 21 15 9 6 3 1 359 359 356 352 348 342 338 336 335 334 335 336 337 337 336 334 329 324 322 320 319 318 315 311 305 300 297 295 295 296 296 296 293 290
63 64 63 63 61 60 58 57 56 55 55 54 53 52 49 47 46 45 44 44 42 38 33 30 30 29 27 24 19 13 7 2 359 356 353 352 351 349 347 344 341 338 333 328 325 326 328 331 333 334 333 330 325 322 321 319 317 314 310 305 300 295 292 290 289 290 292 292 291
60 60 60 60 59 58 55 53 51 51 50 50 50 49 46 42 38 37 37 38 37 33 27 21 21 21 21 16 10 4 359 355 352 350 348 346 344 342 341 340 339 337 333 325 321 321 324 327 329 331 332 330 327 324 323 321 318 315 312 308 305 301 296 292 290 290 291 292 292
58 59 59 60 59 58 56 53 50 47 46 45 45 43 40 34 30 28 28 29 29 26 22 16 14 13 11 6 1 356 352 349 347 346 344 341 339 337 337 337 337 337 335 329 324 323 324 325 327 328 330 330 327 325 323 321 319 316 314 311 308 305 302 298 295 293 293 293 292
57 58 59 59 58 57 56 53 50 46 44 41 38 35 32 27 22 19 19 20 20 19 16 12 9 6 2 357 353 349 346 344 343 342 340 338 336 334 334 335 336 337 336 331 327 325 325 325 326 327 329 329 326 324 322 321 320 317 314 312 309 306 304 300 297 295 294 293 292
56 56 56 55 54 54 51 48 44 41 38 36 33 29 25 22 17 14 12 12 13 12 10 7 3 360 355 350 346 343 341 341 341 340 339 338 335 334 333 334 336 337 336 332 328 327 327 326 326 327 328 328 325 322 321 321 320 318 315 311 308 305 302 299 296 294 293 292 291
54 53 52 51 49 47 43 39 34 31 30 29 27 24 21 17 14 10 7 6 6 5 4 1 358 354 349 344 341 339 339 339 340 340 340 338 336 334 333 334 336 337 335 332 328 327 327 326 327 328 328 328 324 322 322 322 321 319 315 310 307 304 302 299 297 296 295 294 292
50 49 48 45 42 39 35 30 26 23 23 22 21 18 16 14 11 7 3 0 359 358 357 356 353 349 345 342 340 338 338 339 339 340 340 338 337 335 333 334 335 336 335 332 329 327 326 326 327 328 328 326 324 323 323 324 322 319 315 312 310 308 306 305 303 302 301 300 300
45 44 42 39 35 31 27 23 20 18 17 17 15 13 10 9 7 4 360 355 353 352 351 350 348 345 343 340 339 339 338 338 337 338 338 338 336 334 332 333 334 335 335 333 329 326 325 327 328 329 329 328 327 327 328 327 325 322 319 317 315 314 312 311 310 309 309 308 307
39 38 35 32 28 24 20 17 15 12 11 11 10 7 5 3 1 359 356 352 348 346 345 344 343 342 340 338 337 336 337 337 336 336 336 337 335 334 332 331 331 333 335 333 329 327 328 329 331 332 333 332 332 332 332 331 328 325 323 321 319 318 316 315 314 313 312 311 310
32 31 29 25 21 16 12 11 9 8 6 5 4 2 360 358 355 353 351 347 344 341 339 339 338 337 337 336 334 334 335 336 337 337 337 337 337 335 332 330 330 332 334 334 331 330 332 333 335 337 337 337 337 337 336 334 331 328 325 323 321 319 319 318 316 315 314 312 311
25 24 22 19 14 9 6 5 5 4 1 359 358 357 355 353 350 347 344 342 339 337 335 334 334 334 334 334 333 333 335 338 340 341 341 340 339 337 334 331 331 333 335 335 334 334 335 337 338 340 341 341 341 341 339 336 333 329 327 324 322 321 320 320 319 317 315 313 311
19 18 16 13 10 5 2 1 0 359 357 355 353 352 351 348 345 342 340 338 337 336 335 334 333 334 334 334 334 335 338 342 345 346 345 342 339 337 336 334 334 336 338 339 339 338 338 339 340 342 344 344 345 344 342 338 335 332 329 327 325 323 321 321 319 317 314 311 309
16 14 11 9 7 3 0 358 356 355 353 352 350 349 347 344 342 341 340 339 339 338 337 336 336 335 336 337 338 340 342 346 349 348 346 343 341 340 340 340 340 342 343 344 343 342 341 341 343 345 346 346 346 346 343 340 336 333 330 327 324 322 320 319 319 317 315 313 311